Location: Bas-Clignon
(44.2000°N, 6.6333°E)
Time: 06:35:37
(UTC+00:00)

Cosmos 1850 Rocket - Pass Details

Date: 03 February 2023
Orbit: 753 x 785 km, 74.0° (Epoch: 26 March)

Event Time Altitude Azimuth Distance (km) Brightness Sun altitude
Rises 18:21:50 0° 189° (S) 3,203 7.4 -17.5°
Reaches altitude 10° 18:24:13 10° 186° (S) 2,278 6.6 -17.9°
Maximum altitude 18:29:17 61° 106° (ESE) 854 3.9 -18.8°
Enters shadow 18:32:41 21° 32° (NNE) 1,657 5.4 -19.4°
